logo tempoitalia

Diretta Meteo Olivia, Stati Uniti (USA)lunedì 31 agosto ore 01:35

Mappa
Sereno 22 °C Sereno 24 Ore: T.min 18 T.max 30
Ponente Sud/Sud-Est Km/h 14.8 Punto di rugiada: 21 °C Umidità: 94% Visibilità: 10 Km
Il sole sorge alle: 06:41 Il sole tramonta alle: 19:59
31 Agosto 2026 01:35 tempo osservato: Sereno Sereno 22 94 1006 vento: Nord S/SE 14.8
31 Agosto 2026 01:15 tempo osservato: Sereno Sereno 22 100 1007 vento: Nord S/SE 14.8
31 Agosto 2026 00:55 tempo osservato: Sereno Sereno 22 100 1006 vento: Nord SE 14.8
31 Agosto 2026 00:35 tempo osservato: Sereno Sereno 23 94 1006 vento: Nord S/SE 13
31 Agosto 2026 00:15 tempo osservato: Sereno Sereno 23 94 1007 vento: Nord S/SE 14.8
30 Agosto 2026 23:55 tempo osservato: Sereno Sereno 23 94 1007 vento: Nord S/SE 13
30 Agosto 2026 23:35 tempo osservato: Sereno Sereno 23 94 1007 vento: Nord SE 11.1
30 Agosto 2026 23:15 tempo osservato: Sereno Sereno 23 94 1007 vento: Nord S/SE 13
30 Agosto 2026 22:55 tempo osservato: Sereno Sereno 23 94 1007 vento: Nord SE 11.1
30 Agosto 2026 22:35 tempo osservato: Sereno Sereno 23 94 1007 vento: Nord SE 13
30 Agosto 2026 22:27 tempo osservato: Sereno Sereno 24 88 1007 vento: Nord SE 13
30 Agosto 2026 22:03 tempo osservato: Sereno Sereno 24 94 1007 vento: Nord SE 13
30 Agosto 2026 21:42 tempo osservato: Sereno Sereno 25 88 1006 vento: Nord SE 14.8
30 Agosto 2026 21:23 tempo osservato: Sereno Sereno 25 88 1006 vento: Nord SE 11.1
30 Agosto 2026 21:02 tempo osservato: Sereno Sereno 25 88 1006 vento: Nord SE 13
30 Agosto 2026 20:43 tempo osservato: Sereno Sereno 26 83 1006 vento: Nord SE 14.8
30 Agosto 2026 20:15 tempo osservato: Sereno Sereno 26 83 1006 vento: Nord E/SE 16.7
30 Agosto 2026 19:55 tempo osservato: Sereno Sereno 27 78 1006 vento: Nord E/SE 14.8
30 Agosto 2026 19:35 tempo osservato: Sereno Sereno 27 78 1006 vento: Nord E/SE 14.8
30 Agosto 2026 19:15 tempo osservato: Sereno Sereno 28 74 1006 vento: Nord E/SE 11.1
30 Agosto 2026 18:55 tempo osservato: Sereno Sereno 28 74 1006 vento: Nord E/SE 13
30 Agosto 2026 18:35 tempo osservato: Sereno Sereno 29 70 1006 vento: Nord E 16.7
30 Agosto 2026 18:15 tempo osservato: Sereno Sereno 29 70 1006 vento: Nord E/SE 14.8
30 Agosto 2026 17:55 tempo osservato: Sereno Sereno 30 66 1006 vento: Nord E/SE 16.7
30 Agosto 2026 17:35 tempo osservato: Sereno Sereno 30 66 1006 vento: Nord E/SE 18.5
30 Agosto 2026 17:15 tempo osservato: Sereno Sereno 30 70 1006 vento: Nord E 22.2
30 Agosto 2026 16:55 tempo osservato: Sereno Sereno 30 66 1006 vento: Nord E/SE 16.7
30 Agosto 2026 16:35 tempo osservato: Sereno Sereno 30 66 1006 vento: Nord E 20.3
30 Agosto 2026 16:15 tempo osservato: Sereno Sereno 29 70 1006 vento: Nord E/SE 16.7
30 Agosto 2026 15:55 tempo osservato: Sereno Sereno 28 74 1007 vento: Nord E/SE 20.3
30 Agosto 2026 15:35 tempo osservato: Sereno Sereno 28 74 1007 vento: Nord E/SE 16.7
30 Agosto 2026 15:15 tempo osservato: Sereno Sereno 28 74 1007 vento: Nord E/SE 18.5
30 Agosto 2026 14:55 tempo osservato: Sereno Sereno 28 74 1007 vento: Nord E 13
30 Agosto 2026 14:35 tempo osservato: Sereno Sereno 28 74 1007 vento: Nord E/SE 14.8
30 Agosto 2026 14:15 tempo osservato: Sereno Sereno 27 74 1007 vento: Nord E/SE 16.7
30 Agosto 2026 13:55 tempo osservato: Sereno Sereno 27 74 1007 vento: Nord E 18.5
30 Agosto 2026 13:35 tempo osservato: Sereno Sereno 26 78 1007 vento: Nord E/SE 20.3
30 Agosto 2026 13:15 tempo osservato: Sereno Sereno 26 78 1007 vento: Nord E 24
30 Agosto 2026 13:14 tempo osservato: Sereno Sereno 26 78 1007 vento: Nord E 22.2
30 Agosto 2026 13:02 tempo osservato: Sereno Sereno 27 74 1008 vento: Nord E 18.5
30 Agosto 2026 12:35 tempo osservato: Sereno Sereno 25 83 1008 vento: Nord E 22.2
30 Agosto 2026 12:27 tempo osservato: Sereno Sereno 25 83 1008 vento: Nord E 18.5
30 Agosto 2026 12:22 tempo osservato: Sereno Sereno 26 78 0 vento: Nord E 24
30 Agosto 2026 12:03 tempo osservato: Sereno Sereno 24 88 1009 vento: Nord E 16.7
30 Agosto 2026 11:44 tempo osservato: Sereno Sereno 23 88 1008 vento: Nord E 20.3
30 Agosto 2026 11:15 tempo osservato: Sereno Sereno 22 94 1008 vento: Nord E 11.1
30 Agosto 2026 10:55 tempo osservato: Sereno Sereno 22 88 1008 vento: Nord E 11.1
30 Agosto 2026 10:35 tempo osservato: Sereno Sereno 22 88 1008 vento: Nord E 13
30 Agosto 2026 10:15 tempo osservato: Sereno Sereno 21 94 1008 vento: Nord E 7.4
30 Agosto 2026 09:55 tempo osservato: Sereno Sereno 21 94 1008 vento: Nord E/NE 14.8
30 Agosto 2026 09:35 tempo osservato: Sereno Sereno 20 100 1008 vento: Nord E/NE 13
30 Agosto 2026 09:15 tempo osservato: Sereno Sereno 20 100 1008 vento: Nord E/NE 11.1
30 Agosto 2026 08:55 tempo osservato: Sereno Sereno 20 100 1008 vento: Nord E 9.3
30 Agosto 2026 08:35 tempo osservato: Sereno Sereno 20 93 1008 vento: Nord E/NE 11.1
30 Agosto 2026 08:15 tempo osservato: Sereno Sereno 19 100 1008 vento: Nord E 7.4
30 Agosto 2026 07:55 tempo osservato: Sereno Sereno 19 100 1009 vento: Nord E 7.4
30 Agosto 2026 07:35 tempo osservato: Sereno Sereno 19 93 1008 vento: Nord E 9.3
30 Agosto 2026 07:15 tempo osservato: Foschia Foschia 18 100 1008 vento: Nord N 5.5
30 Agosto 2026 06:55 tempo osservato: Foschia Foschia 18 100 1008 vento: Nord E 7.4
30 Agosto 2026 06:35 tempo osservato: Sereno Sereno 18 100 1008 vento: Nord N 5.5
30 Agosto 2026 06:15 tempo osservato: Sereno Sereno 18 100 1008 vento: Nord E 7.4
30 Agosto 2026 05:55 tempo osservato: Sereno Sereno 18 100 1008 vento: Nord E/NE 7.4
30 Agosto 2026 05:35 tempo osservato: Sereno Sereno 18 100 1008 vento: Nord E/NE 7.4
30 Agosto 2026 05:15 tempo osservato: Sereno Sereno 19 93 1008 vento: Nord NE 9.3
30 Agosto 2026 04:55 tempo osservato: Sereno Sereno 19 93 1008 vento: Nord N 0
30 Agosto 2026 04:35 tempo osservato: Sereno Sereno 19 93 1008 vento: Nord E 7.4
30 Agosto 2026 04:15 tempo osservato: Sereno Sereno 19 93 1008 vento: Nord E/NE 7.4
30 Agosto 2026 03:55 tempo osservato: Sereno Sereno 19 93 1008 vento: Nord E/NE 7.4
30 Agosto 2026 03:35 tempo osservato: Sereno Sereno 19 100 1008 vento: Nord N 5.5
30 Agosto 2026 03:15 tempo osservato: Sereno Sereno 20 93 1008 vento: Nord E 9.3
30 Agosto 2026 02:55 tempo osservato: Sereno Sereno 20 93 1008 vento: Nord E 9.3
30 Agosto 2026 02:35 tempo osservato: Sereno Sereno 20 93 1008 vento: Nord N 5.5
30 Agosto 2026 02:15 tempo osservato: Sereno Sereno 20 93 1008 vento: Nord N 5.5
30 Agosto 2026 01:55 tempo osservato: Sereno Sereno 20 93 1009 vento: Nord N 0
30 Agosto 2026 01:35 tempo osservato: Sereno Sereno 21 94 1009 vento: Nord E 9.3